Regional Weather Roundup
Issued by NWS Upton, NY

Current Version | Previous Version | Graphics & Text | Print | Product List | Glossary Off
Versions: 1 2 3 4 5 6 7 8 9 10 11 12 13 14 15 16 17 18 19 20 21 22 23 24 25 26 27 28 29 30 31 32 33 34 35 36 37 38 39 40 41 42 43 44 45 46 47 48 49 50

000
ASUS41 KOKX 190808
RWROKX

REGIONAL WEATHER ROUNDUP
NATIONAL WEATHER SERVICE NEW YORK NY
300 AM EST SUN FEB 19 2017

NOTE: "FAIR" INDICATES FEW OR NO CLOUDS BELOW 12,000 FEET WITH NO
SIGNIFICANT WEATHER AND/OR OBSTRUCTIONS TO VISIBILITY.

NYZ071-072-176-178-NJZ106-104-190900-
NEW YORK CITY METRO AREA

CITY           SKY/WX    TMP DP  RH WIND       PRES   REMARKS
Central Park   CLOUDY    57  32  38 VRB5      29.72R
Wall St Helipt NOT AVBL
LaGuardia APRT CLOUDY    60  32  34 SW8       29.69R
Kennedy INTL   MOCLDY    50  35  56 W12       29.71R
Breezy Point     N/A     46 N/A N/A W12G17      N/A
Newark/Liberty CLOUDY    51  33  50 SW10      29.70R
Teterboro      CLOUDY    51  34  52 SW9       29.69R
$$

NYZ177-179-078>081-190900-
LONG ISLAND NEW YORK

CITY           SKY/WX    TMP DP  RH WIND       PRES   REMARKS
Jones Beach      N/A     45 N/A N/A SW8         N/A
Matinecock PT  NOT AVBL
Farmingdale    MOCLDY    48  34  58 SW8       29.69R
MacArthur/ISP  MOCLDY    44  35  70 SW7       29.68R
Shirley        MOCLDY    48  34  58 W7        29.68S
Westhampton    MOCLDY    43  34  70 SW6       29.68R
Southampton    NOT AVBL
Bridgehampton  NOT AVBL
East Hampton     N/A     42  33  73 CALM      29.65R
Montauk          N/A     52  34  50 SW7       29.65R
$$

NYZ052-065-067-190900-
HUDSON VALLEY

CITY           SKY/WX    TMP DP  RH WIND       PRES   REMARKS
White Plains   CLOUDY    52  30  43 W7        29.67R
Newburgh       PTCLDY    46  34  61 W5        29.70R
Montgomery     CLOUDY    33  28  81 CALM      29.68R
Poughkeepsie   CLOUDY    42  31  64 CALM      29.67R
Albany         PTCLDY    46  35  65 W12       29.67R
$$

NJZ001-105-106-008-010-013-015-019>022-104-190900-
NEW JERSEY

CITY           SKY/WX    TMP DP  RH WIND       PRES   REMARKS
Newark/Liberty CLOUDY    51  33  50 SW10      29.70R
Teterboro      CLOUDY    51  34  52 SW9       29.69R
Caldwell       CLOUDY    49  32  52 SW3       29.71R
Somerville     CLOUDY    34  29  82 CALM      29.71R
Linden         NOT AVBL
Sussex         CLOUDY    34  31  88 CALM      29.71R
Andover          N/A     36  31  82 CALM      29.71R
Trenton        MOCLDY    56  32  40 W7        29.73S
Millville      CLOUDY    56  36  47 W8        29.77R
Atlantic City  CLOUDY    62  31  31 SW10      29.75
Wrightstown    MOCLDY    58  33  38 W9        29.71F
Toms River     CLOUDY    56  35  45 W6        29.74F
Belmar         CLOUDY    57  34  41 W8        29.74R
$$

PAZ047>061-062-071-190900-
EASTERN PENNSYLVANIA

CITY           SKY/WX    TMP DP  RH WIND       PRES   REMARKS
Philadelphia   CLOUDY    50  37  61 CALM      29.75F
Allentown      CLOUDY    48  32  53 SW7       29.73R
Scranton       CLOUDY    50  34  54 S3        29.73R
$$

CTZ002-004>006-009-010-012-RIZ004-006-007-MAZ004-011-015-190900-
SOUTHERN NEW ENGLAND
 IN CT

CITY           SKY/WX    TMP DP  RH WIND       PRES   REMARKS
Bradley INTL   PTCLDY    33  29  85 S5        29.63R WCI  29
Hartford       CLOUDY    35  30  82 CALM      29.64R
Danbury        CLOUDY    47  32  56 W6        29.67R
Wtrbury/Oxford CLOUDY    50  30  46 NW6       29.67R
Bridgeport     PTCLDY    48  33  56 SW8       29.65R
Meriden        CLOUDY    32  27  81 CALM      29.65R
New Haven      CLOUDY    41  31  67 CALM      29.65R
Chester          N/A     50  32  50 W5        29.64R
Groton         CLOUDY    35  31  85 W3        29.64R
Wilimantic     PTCLDY    35  30  82 CALM      29.63R

 IN RI

CITY           SKY/WX    TMP DP  RH WIND       PRES   REMARKS
Providence     CLEAR     42  32  67 S3        29.62R
Block Island   CLOUDY    41  38  89 SW10      29.65R
Westerly       CLOUDY    43  34  70 SW5       29.64R
 IN MA

CITY           SKY/WX    TMP DP  RH WIND       PRES   REMARKS
Boston         PTCLDY    51  33  50 W13       29.57R
Worcester      CLEAR     47  31  53 W16       29.57R
Westfield      CLEAR     29  26  89 CALM      29.62R
Provincetown   CLEAR     42  36  79 SW15      29.58R
Nantucket      CLOUDY    44  38  79 W17       29.62S
$$

ANZ330-335-338-340-345-350-353-355-190900-
COASTAL MARINE OBSERVATIONS


STATION/POSITION TIME  SKY/WX   TEMP    WIND        PRES    VSBY  WAVE
                                AIR SEA DIR/SP/G                  HT/PER
                 (UTC)          (F)     (DEG/KT/KT) (MB)    (MI)  (FT/S)
NY HARB ENTRANCE 0650            47 42  230/ 12/ 14 1005.1          2/ 5
20 S FIRE ISLAND 0650            47 40  240/ 14/ 16 1005.0          3/ 5
GREAT SOUTH BAY  NOT AVBL
23 SSW MONTAUK P 0650            49 44              1004.2          5/ 6
15 E BARNEGAT LI 0730               42                N/A           3/ 5
HUDSON CANYON    0650               51              1006.1          4/ 5
KINGS POINT      0742            54 37              1005.0
EXECUTION ROCKS  NOT AVBL
CENTRAL LI SOUND 0715            44     270/ 12/ 14   N/A           1/ 3
EASTERN LI SOUND NOT AVBL
ROBBINS REEF     0742            54     250/ 17/ 19 1005.7
$$


>>>>>>>>>>>>>>>>>>>>>>>>>>>> KEY <<<<<<<<<<<<<<<<<<<<<<<<<<<
>                                                          <
>     SKY/WX - Sky Condition/Present Weather               <
>     TMP    - Temperature in Fahrenheit                   <
>     DP     - Dew Point in Fahrenheit                     <
>     RH     - Relative Humidity in Percent                <
>     WIND   - Direction (from) and Speed in MPH           <
>     PRES   - Mean Sea Level Pressure (inches of Hg)      <
>     WCI    - Wind Chill Index                            <
>     VSB    - VISIBILITY IN MILES                         <
>     HX     - HEAT INDEX                                  <
>     TC     - TEMPERATURE IN CELSIUS                      <
>     VRB    - VARIABLE WIND DIRECTION                     <
>                                                          <
>>>>>>>>>>>>>>>>>>>>>>>>>>>> KEY <<<<<<<<<<<<<<<<<<<<<<<<<<<



USA.gov is the U.S. government's official web portal to all federal, state and local government web resources and services.